Weather History for Redmond, OR

Change the Weather History Date:

Thursday, February 14, 2013

  Actual Average Record
Temperature  
Mean Temperature 39 °F 35 °F  
Max Temperature 54 °F 47 °F 70 °F (1991)
Min Temperature 23 °F 24 °F -8 °F (1995)
Degree Days  
Heating Degree Days 26 30  
Month to date heating degree days 407 427  
Since 1 July heating degree days 4052 4267  
Cooling Degree Days 0 0  
Month to date cooling degree days 0 0  
Year to date cooling degree days 0 0  
Moisture  
Dew Point 29 °F    
Average Humidity 69    
Maximum Humidity 92    
Minimum Humidity 46    
Precipitation  
Precipitation 0.00 in 0.02 in 0.57 in (2000)
Month to date precipitation T 0.34  
Year to date precipitation 0.41 1.31  
Sea Level Pressure  
Sea Level Pressure 30.50 in    
Wind  
Wind Speed 4 mph (ESE)    
Max Wind Speed 9 mph    
Max Gust Speed 12 mph    
Visibility 10 miles    
Events      
T = Trace of Precipitation, MM = Missing Value Source: NWS Daily Summary

Daily Weather History Graph

Daily Weather History Graph

Search for Another Location

Airport:

Trip Planner

Search our weather history database for the weather conditions in past years. The results will help you decide how hot, cold, wet, or windy it might be!

Date:

Astronomy

Feb. 14, 2013 Rise Set
Actual Time 7:05 AM PST 5:33 PM PST
Civil Twilight 6:35 AM PST 6:02 PM PST
Nautical Twilight 6:01 AM PST 6:36 PM PST
Astronomical Twilight 5:27 AM PST 7:10 PM PST
Moon 8:57 AM PST (2/14) 10:55 PM PST (2/14)
Length of Visible Light 11h 27m
Length of Day
10h 27m
Waxing Crescent, 22% of the Moon is Illuminated
Feb 14
Waxing Crescent
Feb 17
First Quarter
Feb 25
Full
Mar 4
Last Quarter
Mar 11
New

Hourly Weather History & Observations

Time (PST) Temp. Windchill Dew Point Humidity Pressure Visibility Wind Dir Wind Speed Gust Speed Precip Events Conditions
12:56 AM 28.0 °F 24.2 °F 25.0 °F 88% 30.47 in 10.0 mi SSE 3.5 mph - N/A   Clear
1:56 AM 28.0 °F 21.7 °F 25.0 °F 88% 30.48 in 10.0 mi SSE 5.8 mph - N/A   Clear
2:56 AM 27.0 °F - 24.1 °F 89% 30.48 in 10.0 mi Calm Calm - N/A   Clear
3:56 AM 26.1 °F 21.9 °F 23.0 °F 88% 30.49 in 10.0 mi East 3.5 mph - N/A   Clear
4:56 AM 24.1 °F 17.0 °F 21.9 °F 91% 30.50 in 10.0 mi SSE 5.8 mph - N/A   Clear
5:56 AM 25.0 °F - 23.0 °F 92% 30.51 in 10.0 mi Calm Calm - N/A   Clear
7:56 AM 26.1 °F 20.5 °F 23.0 °F 88% 30.55 in 10.0 mi East 4.6 mph - N/A   Clear
8:56 AM 34.0 °F 31.0 °F 30.0 °F 85% 30.56 in 10.0 mi East 3.5 mph - N/A   Clear
9:56 AM 39.9 °F 36.7 °F 30.9 °F 70% 30.54 in 10.0 mi Variable 4.6 mph - N/A   Clear
10:56 AM 44.1 °F 42.5 °F 32.0 °F 63% 30.54 in 10.0 mi South 3.5 mph - N/A   Clear
11:56 AM 48.0 °F - 33.1 °F 56% 30.51 in 10.0 mi East 5.8 mph - N/A   Clear
12:56 PM 51.1 °F - 33.1 °F 50% 30.50 in 10.0 mi East 5.8 mph - N/A   Mostly Cloudy
1:56 PM 51.1 °F - 33.1 °F 50% 30.48 in 10.0 mi Variable 3.5 mph - N/A   Partly Cloudy
2:56 PM 52.0 °F - 33.1 °F 49% 30.47 in 10.0 mi Variable 3.5 mph - N/A   Partly Cloudy
3:56 PM 54.0 °F - 33.1 °F 45% 30.47 in 10.0 mi North 3.5 mph - N/A   Partly Cloudy
4:56 PM 52.0 °F - 34.0 °F 50% 30.46 in 10.0 mi North 6.9 mph - N/A   Clear
5:56 PM 46.9 °F - 34.0 °F 61% 30.48 in 10.0 mi NE 4.6 mph - N/A   Clear
6:56 PM 42.1 °F 39.2 °F 34.0 °F 73% 30.51 in 10.0 mi NNW 4.6 mph - N/A   Clear
7:56 PM 37.0 °F - 32.0 °F 82% 30.53 in 10.0 mi Calm Calm - N/A   Clear
8:56 PM 33.1 °F - 30.9 °F 92% 30.52 in 10.0 mi Calm Calm - N/A   Clear
9:56 PM 32.0 °F 26.4 °F 30.0 °F 92% 30.51 in 10.0 mi South 5.8 mph - N/A   Clear
10:56 PM 30.9 °F 24.3 °F 28.9 °F 92% 30.51 in 10.0 mi SSE 6.9 mph - N/A   Clear
11:56 PM 30.9 °F - 28.9 °F 92% 30.51 in 10.0 mi Calm Calm - N/A   Clear